SCP
0 0 0 -0 -0 -0 -0 -0 -0 -0 -0 0 -0 -0 -0 0 0 0 0 0 0 0 0 0 -0 0 0 0 0 0 0 0
0 0 0 0 -0 -0 -0 -0 -0 -0 0 -0 -0 -0 0 0 0 0 0 0 0 0 0 -0 -0 0 0 0 0 0 0 0
-0 0 0 0 0 0 -0 -0 0 0 0 0 0 0 0 0 0 -0 -0 -0 -0 -0 -0 -0 -0 -0 0 0 0 0 0 0
-0 0 0 0 0 0 -0 0 0 0 0 0 0 0 -0 -0 -0 -0 -0 -0 -0 -0 -0 -0 -0 0 0 0 0 0 0 -0
0 0 0 0 0 0 0 -0 0 0 0 0 0 0 -0 -0 -0 -0 -0 -0 -0 -0 -0 -0 -0 0 0 -0 0 0 0 -0
0 -0 -0 -0 0 0 0 0 0 0 0 0 0 0 -0 -0 -0 -0 -0 -0 -0 -0 -0 -0 -0 -0 0 0 0 0 -0 0
-0 -0 -0 -0 -0 0 0 0 0 0 0 0 0 -0 -0 -0 -0 -0 -0 0 -0 -0 -0 -0 -0 -0 0 0 0 -0 0 0
-0 -0 -0 -0 -0 -0 0 0 0 0 0 0 0 -0 -0 -0 -0 -0 0 0 0 -0 -0 -0 -0 -0 -0 0 0 0 0 0
-0 -0 -0 0 0 0 0 0 0 0 0 0 -0 0 -0 -0 -0 0 0 0 0 0 -0 -0 0 -0 0 0 0 0 0 0
0 0 -0 -0 0 0 0 0 0 0 0 0 0 -0 -0 -0 0 0 0 0 0 0 -0 -0 0 0 0 0 0 0 0 0
0 0 -0 0 0 -0 -0 0 0 0 0 0 0 0 0 -0 0 0 0 0 0 0 0 -0 0 0 0 0 0 0 0 0
0 0 -0 -0 -0 -0 -0 -0 0 0 0 0 0 0 -0 0 0 0 0 0 0 0 0 0 0 0 0 0 0 0 0 0
1 0 0 0 0 0 0 0 0 0 0 0 0 0 0 -0 0 0 0 0 0 0 0 0 0 0 0 0 0 0 0 0
1 1 0 0 0 0 1 1 1 0 0 0 0 1 0 0 0 0 0 0 0 0 0 0 0 0 0 1 1 1 1 1
1 1 2 2 0 0 1 1 1 1 1 0 0 1 1 1 1 0 0 0 0 0 0 0 0 0 0 0 1 1 1 0
1 1 1 2 2 2 1 1 1 1 1 1 0 0 1 1 1 1 0 1 1 1 0 0 1 1 1 0 0 0 0 0
0 0 0 1 1 2 2 1 1 1 1 0 1 1 0 1 1 1 0 0 0 1 1 1 1 1 1 0 0 0 0 0
0 0 0 0 0 0 0 1 1 1 1 1 0 0 0 0 1 2 2 1 0 1 1 1 1 1 1 0 0 0 0 0
0 0 0 0 0 0 0 0 0 0 0 0 0 0 0 0 0 0 1 2 1 1 1 2 2 1 1 1 0 0 0 0
Wind_Speed_500mb
53 54 53 54 54 55 52 46 39 32 28 34 35 35 35 35 33 32 30 29 31 29 30 31 32 36 41 44 38 35 31 33
52 53 52 51 52 53 51 45 39 32 29 35 36 34 33 32 30 28 27 28 30 31 31 31 33 37 38 38 33 29 25 21
44 51 49 49 48 49 50 47 41 35 34 36 34 34 33 30 28 26 26 28 30 29 29 27 28 31 30 29 29 18 24 24
33 41 46 48 46 44 47 48 43 37 38 38 34 32 31 29 27 25 25 27 28 28 25 23 22 25 26 23 25 28 22 14
36 30 45 49 49 48 47 49 46 42 41 40 34 32 31 28 25 23 22 24 25 25 23 21 19 19 23 24 20 17 24 29
36 21 47 49 49 48 47 48 47 45 46 43 37 33 30 27 23 22 20 22 22 22 21 18 16 15 16 20 24 19 15 25
45 36 38 47 48 48 49 50 49 49 50 46 40 35 31 27 22 17 17 20 22 22 20 17 17 17 20 20 20 15 16 26
46 39 35 42 46 43 48 50 52 51 51 46 41 37 32 30 21 17 17 14 18 23 21 19 20 19 16 16 19 23 23 23
61 45 37 36 34 39 33 43 50 54 54 50 45 41 38 36 27 22 9 5 18 22 21 18 20 16 16 15 26 13 22 21
65 51 49 47 37 48 38 32 41 50 52 50 45 44 45 42 32 32 18 19 7 16 21 19 19 18 13 18 18 28 34 19
50 54 59 54 45 53 54 44 33 40 47 45 43 41 45 46 31 42 28 33 27 20 13 13 14 19 25 17 19 13 24 27
45 55 54 61 49 60 55 54 45 30 44 38 40 36 34 51 38 39 37 45 29 31 37 35 36 35 31 26 12 18 31 24
15 42 52 60 52 58 49 44 50 36 38 44 45 45 42 43 53 50 48 42 33 34 30 32 29 28 28 20 20 22 28 29
22 33 46 42 53 57 59 40 43 42 40 47 51 59 58 54 55 54 53 50 45 37 37 20 34 34 40 17 23 29 30 35
27 32 34 35 26 41 50 56 63 53 54 46 51 62 58 58 62 58 53 53 52 42 40 34 33 26 25 39 34 30 34 38
35 38 31 32 38 26 41 56 61 69 61 65 53 52 46 59 54 60 56 49 63 50 38 50 42 37 45 44 43 34 31 29
26 35 46 35 38 38 36 34 59 57 67 69 57 56 52 46 60 66 63 59 51 69 45 50 56 56 47 47 47 45 34 29
23 25 37 34 40 42 40 39 38 55 62 66 71 63 62 66 62 79 79 72 60 60 66 50 59 63 60 56 56 50 22 25
16 19 21 24 35 41 48 49 48 41 47 56 62 66 63 53 60 37 73 72 59 54 73 68 63 72 70 67 66 67 60 46
Wind_Direction_500mb
159 159 159 161 162 161 160 158 156 155 155 154 148 147 145 144 143 143 142 138 137 131 127 119 110 109 120 130 125 115 105 98
158 161 161 163 165 165 163 160 160 160 161 156 150 149 148 149 149 150 149 147 140 135 130 121 111 112 120 128 124 114 104 95
148 163 164 164 168 170 168 165 166 166 165 160 157 153 151 149 148 148 149 154 149 144 137 128 121 117 122 132 126 119 122 110
154 162 168 167 169 171 171 170 170 171 170 166 163 160 157 151 150 149 151 156 158 152 147 138 129 125 124 127 124 127 120 124
167 174 177 172 173 172 171 174 174 174 174 170 170 168 165 158 155 151 155 162 168 165 159 154 143 141 131 128 132 135 134 127
168 177 181 178 177 176 177 176 178 178 177 175 176 175 171 167 162 159 163 170 176 177 172 173 163 161 149 135 142 151 188 161
172 171 185 184 181 180 182 182 183 182 181 180 180 180 176 171 169 175 178 185 184 191 189 186 177 182 175 162 156 162 174 155
188 181 173 183 187 184 187 186 186 186 185 186 186 184 180 170 157 186 183 188 205 200 200 197 191 191 186 198 185 196 189 180
187 185 184 170 177 186 193 194 191 190 190 191 193 188 181 185 177 209 204 158 222 213 208 200 198 185 182 217 215 199 213 216
180 181 188 180 176 187 201 201 206 198 198 198 201 196 189 186 187 206 209 225 226 198 212 185 177 193 230 248 229 202 215 178
173 183 187 185 182 191 200 211 209 218 211 209 211 209 196 193 196 197 226 224 233 230 202 199 213 223 210 211 200 146 176 177
181 180 193 197 188 192 202 215 217 221 213 209 213 210 206 196 194 209 211 209 238 234 246 238 231 222 224 231 194 190 181 175
168 193 199 193 192 189 200 213 214 211 213 215 227 227 226 218 220 213 213 214 216 222 230 230 218 205 190 187 198 169 161 174
172 174 184 198 198 191 196 199 209 212 214 221 226 231 236 234 224 229 226 214 215 220 232 240 223 213 186 224 181 177 178 187
172 174 180 184 198 209 212 218 221 216 213 222 234 233 236 235 230 232 239 235 217 224 226 229 226 232 211 205 215 190 204 209
210 210 199 203 214 202 220 225 227 229 226 227 236 237 248 240 237 237 242 248 225 223 222 230 222 196 208 215 222 203 209 221
224 219 223 218 222 235 244 232 231 229 230 229 240 237 241 257 246 244 244 242 238 227 224 231 226 224 221 218 224 219 205 215
221 224 228 226 222 228 234 237 224 237 241 239 242 240 241 244 239 240 248 242 238 239 231 232 234 228 227 230 227 227 211 222
205 216 223 234 228 237 240 244 246 245 246 249 251 248 253 250 243 235 234 240 241 246 230 232 229 233 233 228 231 235 239 242
Wind_Speed_850mb
53 54 53 54 54 55 52 46 39 32 28 34 35 35 35 35 33 32 30 29 31 29 30 31 32 36 41 44 38 35 31 33
52 53 52 51 52 53 51 45 39 32 29 35 36 34 33 32 30 28 27 28 30 31 31 31 33 37 38 38 33 29 25 21
44 51 49 49 48 49 50 47 41 35 34 36 34 34 33 30 28 26 26 28 30 29 29 27 28 31 30 29 29 18 24 24
33 41 46 48 46 44 47 48 43 37 38 38 34 32 31 29 27 25 25 27 28 28 25 23 22 25 26 23 25 28 22 14
36 30 45 49 49 48 47 49 46 42 41 40 34 32 31 28 25 23 22 24 25 25 23 21 19 19 23 24 20 17 24 29
36 21 47 49 49 48 47 48 47 45 46 43 37 33 30 27 23 22 20 22 22 22 21 18 16 15 16 20 24 19 15 25
45 36 38 47 48 48 49 50 49 49 50 46 40 35 31 27 22 17 17 20 22 22 20 17 17 17 20 20 20 15 16 26
46 39 35 42 46 43 48 50 52 51 51 46 41 37 32 30 21 17 17 14 18 23 21 19 20 19 16 16 19 23 23 23
61 45 37 36 34 39 33 43 50 54 54 50 45 41 38 36 27 22 9 5 18 22 21 18 20 16 16 15 26 13 22 21
65 51 49 47 37 48 38 32 41 50 52 50 45 44 45 42 32 32 18 19 7 16 21 19 19 18 13 18 18 28 34 19
50 54 59 54 45 53 54 44 33 40 47 45 43 41 45 46 31 42 28 33 27 20 13 13 14 19 25 17 19 13 24 27
45 55 54 61 49 60 55 54 45 30 44 38 40 36 34 51 38 39 37 45 29 31 37 35 36 35 31 26 12 18 31 24
15 42 52 60 52 58 49 44 50 36 38 44 45 45 42 43 53 50 48 42 33 34 30 32 29 28 28 20 20 22 28 29
22 33 46 42 53 57 59 40 43 42 40 47 51 59 58 54 55 54 53 50 45 37 37 20 34 34 40 17 23 29 30 35
27 32 34 35 26 41 50 56 63 53 54 46 51 62 58 58 62 58 53 53 52 42 40 34 33 26 25 39 34 30 34 38
35 38 31 32 38 26 41 56 61 69 61 65 53 52 46 59 54 60 56 49 63 50 38 50 42 37 45 44 43 34 31 29
26 35 46 35 38 38 36 34 59 57 67 69 57 56 52 46 60 66 63 59 51 69 45 50 56 56 47 47 47 45 34 29
23 25 37 34 40 42 40 39 38 55 62 66 71 63 62 66 62 79 79 72 60 60 66 50 59 63 60 56 56 50 22 25
16 19 21 24 35 41 48 49 48 41 47 56 62 66 63 53 60 37 73 72 59 54 73 68 63 72 70 67 66 67 60 46
Wind_Direction_850mb
159 159 159 161 162 161 160 158 156 155 155 154 148 147 145 144 143 143 142 138 137 131 127 119 110 109 120 130 125 115 105 98
158 161 161 163 165 165 163 160 160 160 161 156 150 149 148 149 149 150 149 147 140 135 130 121 111 112 120 128 124 114 104 95
148 163 164 164 168 170 168 165 166 166 165 160 157 153 151 149 148 148 149 154 149 144 137 128 121 117 122 132 126 119 122 110
154 162 168 167 169 171 171 170 170 171 170 166 163 160 157 151 150 149 151 156 158 152 147 138 129 125 124 127 124 127 120 124
167 174 177 172 173 172 171 174 174 174 174 170 170 168 165 158 155 151 155 162 168 165 159 154 143 141 131 128 132 135 134 127
168 177 181 178 177 176 177 176 178 178 177 175 176 175 171 167 162 159 163 170 176 177 172 173 163 161 149 135 142 151 188 161
172 171 185 184 181 180 182 182 183 182 181 180 180 180 176 171 169 175 178 185 184 191 189 186 177 182 175 162 156 162 174 155
188 181 173 183 187 184 187 186 186 186 185 186 186 184 180 170 157 186 183 188 205 200 200 197 191 191 186 198 185 196 189 180
187 185 184 170 177 186 193 194 191 190 190 191 193 188 181 185 177 209 204 158 222 213 208 200 198 185 182 217 215 199 213 216
180 181 188 180 176 187 201 201 206 198 198 198 201 196 189 186 187 206 209 225 226 198 212 185 177 193 230 248 229 202 215 178
173 183 187 185 182 191 200 211 209 218 211 209 211 209 196 193 196 197 226 224 233 230 202 199 213 223 210 211 200 146 176 177
181 180 193 197 188 192 202 215 217 221 213 209 213 210 206 196 194 209 211 209 238 234 246 238 231 222 224 231 194 190 181 175
168 193 199 193 192 189 200 213 214 211 213 215 227 227 226 218 220 213 213 214 216 222 230 230 218 205 190 187 198 169 161 174
172 174 184 198 198 191 196 199 209 212 214 221 226 231 236 234 224 229 226 214 215 220 232 240 223 213 186 224 181 177 178 187
172 174 180 184 198 209 212 218 221 216 213 222 234 233 236 235 230 232 239 235 217 224 226 229 226 232 211 205 215 190 204 209
210 210 199 203 214 202 220 225 227 229 226 227 236 237 248 240 237 237 242 248 225 223 222 230 222 196 208 215 222 203 209 221
224 219 223 218 222 235 244 232 231 229 230 229 240 237 241 257 246 244 244 242 238 227 224 231 226 224 221 218 224 219 205 215
221 224 228 226 222 228 234 237 224 237 241 239 242 240 241 244 239 240 248 242 238 239 231 232 234 228 227 230 227 227 211 222
205 216 223 234 228 237 240 244 246 245 246 249 251 248 253 250 243 235 234 240 241 246 230 232 229 233 233 228 231 235 239 242